When you browse on this site, cookies collect data to enhance your experience and personalize the content and advertising you see.
Visit our Privacy Policy to learn more. By continuing to use the site, you agree to this use of cookies and data.
  • en Suisse
  • Liste des pays
  • À 7 jours
  • Température de l'eau
  • Carte météo
  • Widgets météo
  • user-avatar
    Se connecter

    Météo par heure à Krotovka

    Ce jour, 25 Août, Dimanche

    Heure Température Précipitation Vent Pression Humidité
    00:00 +16°C° 0 mm 2 m/s 747 mmHg 72%
    01:00 +16°C° 0 mm 2 m/s 747 mmHg 76%
    02:00 +15°C° 0 mm 2 m/s 747 mmHg 80%
    03:00 +14°C° 0 mm 3 m/s 747 mmHg 84%
    04:00 +14°C° 0 mm 3 m/s 747 mmHg 87%
    05:00 +14°C° 0 mm 3 m/s 747 mmHg 90%
    06:00 +13°C° 0 mm 3 m/s 747 mmHg 93%
    07:00 +16°C° 0 mm 3 m/s 747 mmHg 87%
    08:00 +17°C° 0 mm 3 m/s 748 mmHg 81%
    09:00 +18°C° 0 mm 4 m/s 748 mmHg 74%
    10:00 +19°C° 0 mm 4 m/s 748 mmHg 69%
    11:00 +20°C° 0 mm 4 m/s 748 mmHg 63%
    12:00 +21°C° 0 mm 4 m/s 748 mmHg 58%
    13:00 +21°C° 0 mm 4 m/s 748 mmHg 57%
    14:00 +21°C° 0 mm 4 m/s 749 mmHg 56%
    15:00 +22°C° 0 mm 4 m/s 749 mmHg 55%
    16:00 +21°C° 0 mm 4 m/s 749 mmHg 59%
    17:00 +20°C° 0 mm 3 m/s 749 mmHg 63%
    18:00 +20°C° 0 mm 3 m/s 749 mmHg 67%
    19:00 +18°C° 0 mm 3 m/s 749 mmHg 71%
    20:00 +17°C° 0 mm 3 m/s 749 mmHg 76%
    21:00 +16°C° 0 mm 2 m/s 750 mmHg 80%
    22:00 +15°C° 0 mm 2 m/s 750 mmHg 83%
    23:00 +14°C° 0 mm 3 m/s 750 mmHg 86%

    Demain, 26 Août, Lundi

    Heure Température Précipitation Vent Pression Humidité
    00:00 +13°C° 0 mm 3 m/s 750 mmHg 88%
    01:00 +13°C° 0 mm 2 m/s 751 mmHg 89%
    02:00 +13°C° 0 mm 2 m/s 751 mmHg 90%
    03:00 +12°C° 0 mm 1 m/s 751 mmHg 91%
    04:00 +12°C° 0 mm 1 m/s 751 mmHg 90%
    05:00 +12°C° 0 mm 1 m/s 751 mmHg 90%
    06:00 +12°C° 0 mm 1 m/s 751 mmHg 90%
    07:00 +13°C° 0 mm 1 m/s 751 mmHg 83%
    08:00 +15°C° 0 mm 1 m/s 751 mmHg 76%
    09:00 +16°C° 0 mm 1 m/s 751 mmHg 69%
    10:00 +19°C° 0 mm 1 m/s 751 mmHg 64%
    11:00 +20°C° 0 mm 1 m/s 751 mmHg 59%
    12:00 +21°C° 0 mm 1 m/s 751 mmHg 54%
    13:00 +22°C° 0 mm 1 m/s 751 mmHg 51%
    14:00 +22°C° 0 mm 1 m/s 750 mmHg 48%
    15:00 +23°C° 0 mm 1 m/s 750 mmHg 46%
    16:00 +23°C° 0 mm 1 m/s 750 mmHg 49%
    17:00 +22°C° 0 mm 1 m/s 749 mmHg 52%
    18:00 +22°C° 0 mm 1 m/s 749 mmHg 55%
    19:00 +21°C° 0 mm 1 m/s 749 mmHg 58%
    20:00 +19°C° 0 mm 1 m/s 748 mmHg 60%
    21:00 +18°C° 0 mm 1 m/s 748 mmHg 63%
    22:00 +16°C° 0 mm 2 m/s 748 mmHg 65%
    23:00 +16°C° 0 mm 2 m/s 748 mmHg 67%

    Après-demain, 27 Août, Mardi

    Heure Température Précipitation Vent Pression Humidité
    00:00 +15°C° 0 mm 2 m/s 748 mmHg 70%
    01:00 +15°C° 0 mm 2 m/s 747 mmHg 71%
    02:00 +14°C° 0 mm 3 m/s 747 mmHg 73%
    03:00 +13°C° 0 mm 3 m/s 747 mmHg 74%
    04:00 +13°C° 0 mm 3 m/s 746 mmHg 76%
    05:00 +13°C° 0 mm 3 m/s 746 mmHg 78%
    06:00 +13°C° 0 mm 3 m/s 745 mmHg 80%
    07:00 +14°C° 0 mm 4 m/s 745 mmHg 77%
    08:00 +17°C° 0 mm 4 m/s 745 mmHg 75%
    09:00 +17°C° 0 mm 5 m/s 744 mmHg 73%
    10:00 +19°C° 0.1 mm 5 m/s 744 mmHg 70%
    11:00 +21°C° 0.1 mm 6 m/s 744 mmHg 66%
    12:00 +22°C° 0.1 mm 6 m/s 743 mmHg 63%
    13:00 +22°C° 0.4 mm 6 m/s 743 mmHg 63%
    14:00 +22°C° 0.4 mm 7 m/s 743 mmHg 63%
    15:00 +22°C° 0.4 mm 7 m/s 742 mmHg 63%
    16:00 +21°C° 0.1 mm 6 m/s 742 mmHg 66%
    17:00 +21°C° 0.1 mm 5 m/s 742 mmHg 69%
    18:00 +20°C° 0.1 mm 5 m/s 742 mmHg 71%
    19:00 +17°C° 0 mm 5 m/s 742 mmHg 73%
    20:00 +17°C° 0 mm 4 m/s 742 mmHg 75%
    21:00 +15°C° 0 mm 4 m/s 743 mmHg 77%
    22:00 +14°C° 0 mm 4 m/s 743 mmHg 79%
    23:00 +13°C° 0 mm 4 m/s 743 mmHg 80%

    28 Août, Mercredi

    Heure Température Précipitation Vent Pression Humidité
    00:00 +13°C° 0 mm 4 m/s 743 mmHg 81%
    01:00 +12°C° 0 mm 4 m/s 744 mmHg 81%
    02:00 +10°C° 0 mm 5 m/s 744 mmHg 82%
    03:00 +9°C° 0 mm 5 m/s 744 mmHg 83%
    04:00 +8°C° 0 mm 5 m/s 744 mmHg 81%
    05:00 +8°C° 0 mm 5 m/s 745 mmHg 80%
    06:00 +7°C° 0 mm 5 m/s 745 mmHg 78%
    07:00 +7°C° 0 mm 5 m/s 745 mmHg 72%
    08:00 +8°C° 0 mm 6 m/s 746 mmHg 67%
    09:00 +9°C° 0 mm 6 m/s 746 mmHg 61%
    10:00 +10°C° 0 mm 6 m/s 746 mmHg 59%
    11:00 +11°C° 0 mm 6 m/s 746 mmHg 56%
    12:00 +13°C° 0 mm 6 m/s 746 mmHg 54%
    13:00 +13°C° 0 mm 6 m/s 746 mmHg 52%
    14:00 +14°C° 0 mm 6 m/s 746 mmHg 51%
    15:00 +15°C° 0 mm 7 m/s 746 mmHg 49%
    16:00 +14°C° 0 mm 6 m/s 746 mmHg 51%
    17:00 +13°C° 0 mm 6 m/s 746 mmHg 54%
    18:00 +12°C° 0 mm 5 m/s 746 mmHg 57%
    19:00 +10°C° 0 mm 5 m/s 746 mmHg 61%
    20:00 +10°C° 0 mm 4 m/s 747 mmHg 66%
    21:00 +8°C° 0 mm 3 m/s 747 mmHg 70%
    22:00 +8°C° 0 mm 3 m/s 747 mmHg 72%
    23:00 +7°C° 0 mm 3 m/s 747 mmHg 74%

    29 Août, Jeudi

    Heure Température Précipitation Vent Pression Humidité
    00:00 +6°C° 0 mm 2 m/s 748 mmHg 76%
    01:00 +5°C° 0 mm 3 m/s 748 mmHg 78%
    02:00 +5°C° 0 mm 3 m/s 748 mmHg 79%
    03:00 +4°C° 0 mm 3 m/s 748 mmHg 81%
    04:00 +4°C° 0 mm 3 m/s 748 mmHg 83%
    05:00 +4°C° 0 mm 3 m/s 748 mmHg 85%
    06:00 +4°C° 0 mm 3 m/s 748 mmHg 87%
    07:00 +5°C° 0 mm 4 m/s 748 mmHg 80%
    08:00 +7°C° 0 mm 4 m/s 749 mmHg 74%
    09:00 +8°C° 0 mm 5 m/s 749 mmHg 67%
    10:00 +9°C° 0 mm 5 m/s 749 mmHg 64%
    11:00 +10°C° 0 mm 5 m/s 749 mmHg 61%
    12:00 +12°C° 0 mm 5 m/s 749 mmHg 58%
    13:00 +13°C° 0 mm 5 m/s 748 mmHg 56%
    14:00 +14°C° 0 mm 5 m/s 748 mmHg 55%
    15:00 +14°C° 0 mm 5 m/s 748 mmHg 53%
    16:00 +14°C° 0 mm 5 m/s 748 mmHg 56%
    17:00 +13°C° 0 mm 4 m/s 748 mmHg 58%
    18:00 +13°C° 0 mm 4 m/s 748 mmHg 61%
    19:00 +12°C° 0 mm 4 m/s 748 mmHg 66%
    20:00 +10°C° 0 mm 3 m/s 748 mmHg 71%
    21:00 +9°C° 0 mm 3 m/s 748 mmHg 76%
    22:00 +8°C° 0 mm 3 m/s 748 mmHg 77%
    23:00 +8°C° 0 mm 2 m/s 749 mmHg 79%

    30 Août, Vendredi

    Heure Température Précipitation Vent Pression Humidité
    00:00 +7°C° 0 mm 2 m/s 749 mmHg 80%
    01:00 +7°C° 0 mm 2 m/s 749 mmHg 81%
    02:00 +6°C° 0 mm 2 m/s 749 mmHg 82%
    03:00 +6°C° 0 mm 2 m/s 749 mmHg 83%
    04:00 +6°C° 0 mm 2 m/s 749 mmHg 84%
    05:00 +5°C° 0 mm 2 m/s 749 mmHg 85%
    06:00 +5°C° 0 mm 2 m/s 749 mmHg 86%
    07:00 +7°C° 0 mm 3 m/s 749 mmHg 79%
    08:00 +9°C° 0 mm 3 m/s 749 mmHg 72%
    09:00 +11°C° 0 mm 3 m/s 749 mmHg 65%
    10:00 +12°C° 0 mm 3 m/s 748 mmHg 59%
    11:00 +13°C° 0 mm 3 m/s 748 mmHg 53%
    12:00 +16°C° 0 mm 3 m/s 748 mmHg 47%
    13:00 +16°C° 0 mm 3 m/s 748 mmHg 46%
    14:00 +17°C° 0 mm 4 m/s 747 mmHg 45%
    15:00 +18°C° 0 mm 4 m/s 747 mmHg 44%
    16:00 +17°C° 0 mm 4 m/s 746 mmHg 49%
    17:00 +17°C° 0 mm 3 m/s 746 mmHg 55%
    18:00 +16°C° 0 mm 3 m/s 746 mmHg 60%
    19:00 +15°C° 0 mm 4 m/s 746 mmHg 65%
    20:00 +14°C° 0 mm 4 m/s 746 mmHg 71%
    21:00 +13°C° 0 mm 4 m/s 745 mmHg 76%
    22:00 +13°C° 0.1 mm 4 m/s 745 mmHg 82%
    23:00 +13°C° 0.1 mm 3 m/s 746 mmHg 88%
    Voir plus